User: anonymous   Login
Location: Newark
(33.4133°N, 82.3847°W)
Time: 00:33:33
(UTC+00:00)
Language:

Hubble Space Telescope - Orbit

View from above orbital plane
View from above orbital plane
View from above satellite
View from above satellite

Ground track
Ground track

The orbit data is extracted from the following two-line orbital elements,

1 20580U 90037B   20055.24181838 +.00000470 +00000-0 +17626-4 0  9998
2 20580 028.4707 355.0482 0002472 303.7310 186.8006 15.09343064438698
Epoch (UTC): 24 February 2020 05:48:13
Eccentricity: 0.0002472
inclination: 28.4707°
perigee height: 536 km
apogee height: 540 km
right ascension of ascending node: 355.0482°
argument of perigee: 303.7310°
revolutions per day: 15.09343064
mean anomaly at epoch: 186.8006°
orbit number at epoch: 43869

The dashed part of the orbit path shows where the satellite is in the earth's shadow,  

DLR